Skip Page Navigation
NASA JPL Caltech
NASA Logo - Jet Propulsion Laboratory + View the NASA Portal
+ Center for Near-Earth Object Studies
JPL Home Earth Solar System Stars & Galaxies Technology
JPL Solar System Dynamics
BODIES ORBITS EPHEMERIDES TOOLS PHYSICAL DATA DISCOVERY FAQ SITE MAP
JPL Small-Body Database Browser
Search: [ help ]  
150949 (2001 TS118)
Classification: Main-belt Asteroid          SPK-ID: 2150949
Ephemeris | Orbit Diagram | Orbital Elements | Mission Design | Physical Parameters | Discovery Circumstances ]

[ show orbit diagram ]
Orbital Elements at Epoch 2459200.5 (2020-Dec-17.0) TDB
Reference: JPL 19 (heliocentric ecliptic J2000)
 Element Value Uncertainty (1-sigma)   Units 
e .1736820403861117 8.7004e-08  
a 2.626588108783689 1.6358e-08 au
q 2.17039692679624 2.3176e-07 au
i 12.69840326960389 5.3669e-06 deg
node 306.4670777980737 2.8736e-05 deg
peri 96.31748199806121 3.7447e-05 deg
M 167.4360935253397 2.1842e-05 deg
tp 2458477.342375255127
(2018-Dec-24.84237526)
9.1936e-05 TDB
period 1554.842444223383
4.26
1.4525e-05
3.977e-08
d
yr
n .231534713589462 2.163e-09 deg/d
Q 3.082779290771139 1.9199e-08 au
  Orbit Determination Parameters
   # obs. used (total)      339  
   data-arc span      9597 days (26.28 yr)  
   first obs. used      1994-01-17  
   last obs. used      2020-04-27  
   planetary ephem.      DE431  
   SB-pert. ephem.      SB431-N16  
   condition code      0  
   norm. resid. RMS      .55961  
   source      ORB  
   producer      Otto Matic  
   solution date      2020-May-21 00:27:06  

Additional Information
 Earth MOID = 1.22185 au 
 Jupiter MOID = 2.41404 au 
 T_jup = 3.346 
[ show covariance matrix ]

Ephemeris | Orbit Diagram | Orbital Elements | Mission Design | Physical Parameters | Discovery Circumstances ]

Physical Parameter Table
Parameter Symbol Value Units Sigma Reference Notes
absolute magnitude H 16.11   n/a E2021B55  

150949 (2001 TS118)          Discovered 2001-Oct-15 by LINEAR at Socorro
Reference: 20070303/Numbers.arcLast Updated: 2007-03-07
Ephemeris | Orbit Diagram | Orbital Elements | Mission Design | Physical Parameters | Discovery Circumstances ]
ABOUT SSD CREDITS/AWARDS PRIVACY/COPYRIGHT GLOSSARY LINKS
FirstGov 2021-Apr-12 04:59 UT
(server date/time)  
NASA Home Page
Site Manager:   Ryan S. Park
Webmaster  Alan B. Chamberlin